Location: Quaker Farms
(41.4276°N, 73.1557°W)
Time: 20:31:07
(UTC+00:00)

S-56A Canister/Altair - Pass Details

Date: 20 June 2021
Orbit: 631 x 2501 km, 38.9° (Epoch: 30 July)

Event Time Altitude Azimuth Distance (km) Brightness Sun altitude
Rises 16:32:55 0° 262° (W) 3,873 11.1 71.5°
Reaches altitude 10° 16:39:46 10° 218° (SW) 3,498 11.2 71.8°
Maximum altitude 16:40:04 10° 216° (SW) 3,522 11.2 71.8°
Drops below altitude 10° 16:40:23 10° 214° (SW) 3,551 11.3 71.8°
Sets 16:49:17 0° 174° (S) 5,234 12.0 72.0°
